Miscellaneous Local Product
Issued by NWS Hastings, NE

Home | Current Version | Previous Version | Graphics & Text | Print | Product List | Glossary Off
Versions: 1 2 3 4 5 6 7 8 9 10 11 12 13 14 15 16 17 18 19 20 21 22 23 24 25 26 27 28 29 30 31 32 33 34 35 36 37 38 39 40 41 42 43 44 45 46 47 48 49 50

000
AXUS43 KGID 202302
MISGRI

GID CWA HOURLY WEATHER ROUNDUP
NATIONAL WEATHER SERVICE HASTINGS NE
600 PM CDT MON OCT 20 2014

NOTE: "FAIR" INDICATES FEW OR NO CLOUDS BELOW 12,000 FEET WITH NO
SIGNIFICANT WEATHER AND/OR OBSTRUCTIONS TO VISIBILITY.

...SOUTH CENTRAL NEBRASKA...

CITY           SKY/WX    TMP DP  RH WIND       PRES   REMARKS
GRAND ISLAND   CLEAR     74  41  30 CALM      30.06F
HASTINGS       CLEAR     72  38  29 E3        30.06S
KEARNEY        CLEAR     72  43  35 E6        30.07F
ORD            CLEAR     71  42  35 S6        30.04S
YORK           CLEAR     72  39  30 W3        30.06S
AURORA         CLEAR     72  34  25 CALM      30.06S
LEXINGTON      CLEAR     75  40  28 S7        30.06S
HOLDREGE       CLEAR     74  39  28 CALM      30.06F
HEBRON         CLEAR     72  35  25 CALM      30.05S

...NEBRASKA PANHANDLE...

CITY           SKY/WX    TMP DP  RH WIND       PRES   REMARKS
CHADRON        CLEAR     78  43  28 S17       29.93F
ALLIANCE       SUNNY     74  38  27 S13       30.01F
SCOTTSBLUFF    SUNNY     79  38  22 S14       29.99S
SIDNEY         SUNNY     74  36  25 S14       30.05F

...WESTERN AND NORTH CENTRAL NEBRASKA...

CITY           SKY/WX    TMP DP  RH WIND       PRES   REMARKS
VALENTINE      CLEAR     77  38  24 S13       30.00S
AINSWORTH      CLEAR     73  40  30 S7        30.02F
ONEILL         CLEAR     71  43  36 SE3       30.04F
BROKEN BOW     CLEAR     73  45  36 SE8       30.05F
IMPERIAL       CLEAR     75  38  26 S14       30.05F
NORTH PLATTE   CLEAR     74  40  29 S8        30.04F
MCCOOK         CLEAR     77  38  24 S9        30.06F

...EASTERN NEBRASKA...

CITY           SKY/WX    TMP DP  RH WIND       PRES   REMARKS
NORFOLK        CLEAR     72  34  24 CALM      30.04F
SO SIOUX CITY  CLEAR     70  39  32 NW6       30.04S
TEKAMAH        CLEAR     70  39  32 N6        30.04S
COLUMBUS       CLEAR     70  34  26 CALM      30.06S
ALBION         CLEAR     69  40  34 S3        30.05S
OMAHA EPPLEY   CLEAR     70  41  34 NW5       30.04S
OFFUTT AFB     CLEAR     69  45  43 CALM      30.04S
MILLARD        CLEAR     70  40  33 CALM      30.04S
LINCOLN        CLEAR     72  35  25 NW3       30.05S
NEBRASKA CITY  CLEAR     68  29  23 NE3       30.04S
BEATRICE       CLEAR     69  44  41 N3        30.05S
FALLS CITY     CLEAR     71  35  26 N5        30.03S

...NORTHERN KANSAS...

CITY           SKY/WX    TMP DP  RH WIND       PRES   REMARKS
GOODLAND       SUNNY     73  40  30 S15       30.10F
HILL CITY      CLEAR     77  38  24 E6        30.07S
NORTON         CLEAR     75  32  20 SE5       30.06S
PHILLIPSBURG   CLEAR     79  41  25 SE3       30.06S
BELOIT         CLEAR     75  43  31 CALM      30.04S
HAYS           CLEAR     75  45  33 E8        30.07S
RUSSELL        CLEAR     74  45  35 E7        30.05S
CONCORDIA      CLEAR     74  45  35 NE3       30.05S
SALINA         CLEAR     77  44  30 E3        30.05S
TOPEKA         CLEAR     72  45  37 N6        30.04R



USA.gov is the U.S. government's official web portal to all federal, state and local government web resources and services.